FW7005 Weather Reports


time (UTC)temp
C
wind
direction
speed
KPH
gust
KPH
rain 1hr
cm
rain 24hr
cm
rain mn
cm
humidity
%
barometer
mb
20260506185527 13 115 1.6 4.8 0.00 0.03 0.03 90 1022.7
20260506185024 13 118 1.6 8.0 0.00 0.03 0.03 89 1022.8
20260506184521 13 231 6.4 8.0 0.00 0.03 0.03 89 1022.8
20260506184018 12 111 0.0 4.8 0.00 0.03 0.03 89 1022.7
20260506183514 13 250 6.4 9.7 0.00 0.03 0.03 87 1022.7
20260506183011 13 305 6.4 8.0 0.00 0.03 0.03 87 1022.4
20260506182508 13 241 8.0 14.5 0.00 0.03 0.03 87 1022.6
20260506182005 13 271 3.2 9.7 0.00 0.03 0.03 86 1022.6
20260506181503 13 185 3.2 4.8 0.00 0.03 0.03 87 1022.6
20260506180959 12 285 3.2 8.0 0.00 0.03 0.03 88 1022.6
20260506180455 12 228 4.8 8.0 0.00 0.03 0.03 88 1022.4
20260506175947 13 207 6.4 8.0 0.00 0.03 0.03 88 1022.3
20260506175443 13 161 6.4 11.3 0.00 0.03 0.03 90 1022.3
20260506174934 13 232 4.8 4.8 0.00 0.03 0.03 88 1022.3
20260506174432 13 246 3.2 14.5 0.00 0.03 0.03 89 1022.2
20260506173929 12 76 3.2 4.8 0.00 0.03 0.03 90 1022.1
20260506173426 12 292 1.6 8.0 0.00 0.03 0.03 87 1022.1
20260506172923 12 53 1.6 3.2 0.00 0.03 0.03 88 1022.1
20260506172420 12 74 0.0 4.8 0.00 0.03 0.03 88 1022.2
20260506171916 12 137 3.2 3.2 0.00 0.03 0.03 90 1022.3
20260506171413 12 172 0.0 4.8 0.00 0.03 0.03 91 1022.0
20260506170912 11 73 1.6 3.2 0.00 0.03 0.03 90 1022.2
20260506170407 11 197 4.8 9.7 0.00 0.03 0.03 90 1022.1
20260506165906 11 55 0.0 4.8 0.00 0.03 0.03 89 1022.1
20260506165404 11 72 4.8 4.8 0.00 0.03 0.03 91 1022.0
20260506164855 11 132 0.0 1.6 0.00 0.03 0.03 92 1022.1
20260506164351 11 349 1.6 3.2 0.00 0.03 0.03 89 1021.8
20260506163849 11 106 0.0 3.2 0.00 0.03 0.03 90 1022.2
20260506163343 10 46 1.6 3.2 0.00 0.03 0.03 90 1022.1
20260506162839 10 27 3.2 3.2 0.00 0.03 0.03 90 1022.2
20260506162337 11 9 3.2 4.8 0.00 0.03 0.03 89 1022.2
20260506161834 10 97 1.6 1.6 0.00 0.03 0.03 90 1022.0
20260506161331 10 122 1.6 1.6 0.00 0.03 0.03 90 1022.1
20260506160829 8 69 0.0 1.6 0.00 0.03 0.03 95 1022.3
20260506160326 8 56 0.0 3.2 0.00 0.03 0.03 99 1022.0
20260506155825 7 108 3.2 4.8 0.00 0.03 0.03 99 1021.8
20260506155321 7 153 1.6 3.2 0.00 0.03 0.03 99 1022.3
20260506153439 7 75 0.0 1.6 0.00 0.03 0.03 99 1021.7
20260506152936 6 44 0.0 0.0 0.00 0.03 0.03 99 1021.8
20260506152433 6 22 0.0 1.6 0.00 0.03 0.03 99 1022.0
20260506151932 5 24 1.6 3.2 0.00 0.03 0.03 99 1022.0
20260506151428 5 38 0.0 0.0 0.00 0.03 0.03 99 1022.0
20260506150926 4 27 1.6 1.6 0.00 0.03 0.03 99 1021.7
20260506150422 3 38 0.0 0.0 0.00 0.03 0.03 99 1021.7
20260506145919 3 15 0.0 1.6 0.00 0.03 0.03 99 1021.7
20260506145415 2 17 1.6 1.6 0.00 0.03 0.03 99 1022.0
20260506144913 2 28 0.0 1.6 0.00 0.03 0.03 99 1021.7
20260506144409 2 19 0.0 1.6 0.00 0.03 0.03 99 1021.8
20260506143908 1 23 1.6 1.6 0.00 0.03 0.03 99 1021.7
20260506143404 1 22 1.6 1.6 0.00 0.03 0.03 99 1022.1
20260506142902 1 15 1.6 1.6 0.00 0.03 0.03 99 1021.8
20260506142400 1 8 1.6 1.6 0.00 0.03 0.03 99 1021.7
20260506141858 0 20 3.2 3.2 0.00 0.03 0.03 99 1022.0
20260506141356 0 344 0.0 0.0 0.00 0.03 0.03 99 1021.7
20260506140854 0 2 1.6 1.6 0.00 0.03 0.03 99 1021.6
20260506140350 0 13 3.2 3.2 0.00 0.03 0.03 99 1021.6
20260506135847 0 11 1.6 1.6 0.00 0.03 0.03 99 1021.5
20260506135344 0 10 1.6 1.6 0.00 0.03 0.03 99 1021.5
20260506134840 0 326 0.0 0.0 0.00 0.03 0.03 99 1021.2
20260506134337 0 347 0.0 0.0 0.00 0.03 0.03 99 1021.4
20260506133834 0 332 0.0 0.0 0.00 0.03 0.03 99 1021.1
20260506133331 0 340 0.0 0.0 0.00 0.03 0.03 99 1021.2
20260506132827 0 332 0.0 0.0 0.00 0.03 0.03 99 1021.2
20260506132325 0 337 0.0 0.0 0.00 0.03 0.03 99 1021.2
20260506131823 0 331 0.0 0.0 0.00 0.03 0.03 99 1021.1
20260506131318 0 319 0.0 0.0 0.00 0.03 0.03 99 1021.1
20260506130816 0 314 0.0 1.6 0.00 0.03 0.03 99 1020.9
20260506130312 0 337 0.0 0.0 0.00 0.03 0.03 99 1021.0
20260506125810 0 337 0.0 0.0 0.00 0.03 0.03 99 1020.8
20260506125308 0 343 0.0 0.0 0.00 0.03 0.03 99 1021.1
20260506124807 0 339 0.0 0.0 0.00 0.03 0.03 99 1020.8
20260506124303 0 336 0.0 0.0 0.00 0.03 0.03 99 1020.8
20260506123800 0 336 0.0 1.6 0.00 0.03 0.03 99 1020.8
20260506123259 0 331 0.0 0.0 0.00 0.03 0.03 99 1020.9
20260506122756 0 319 0.0 0.0 0.00 0.03 0.03 99 1020.3
20260506122253 0 345 0.0 0.0 0.00 0.03 0.03 99 1020.5
20260506121751 0 346 0.0 1.6 0.00 0.03 0.03 99 1020.5
20260506121248 0 292 0.0 0.0 0.00 0.03 0.03 99 1020.6
20260506120745 0 329 0.0 1.6 0.00 0.03 0.03 99 1020.6
20260506120243 0 317 0.0 0.0 0.00 0.03 0.03 99 1020.6
20260506115740 0 338 0.0 0.0 0.00 0.03 0.03 99 1020.5
20260506115238 0 333 0.0 0.0 0.00 0.03 0.03 99 1020.4
20260506114736 0 341 0.0 0.0 0.00 0.03 0.03 99 1020.8
20260506114233 0 336 0.0 0.0 0.00 0.03 0.03 99 1020.8
20260506113731 0 333 0.0 0.0 0.00 0.03 0.03 99 1020.8
20260506113228 0 330 0.0 0.0 0.00 0.03 0.03 99 1021.0
20260506112724 0 320 0.0 0.0 0.00 0.03 0.03 99 1020.5
20260506112223 0 0 0.0 0.0 0.00 0.03 0.03 99 1020.6
20260506111720 0 339 0.0 0.0 0.00 0.03 0.03 99 1020.5
20260506111218 0 337 0.0 0.0 0.00 0.03 0.03 99 1020.4
20260506110714 0 328 0.0 0.0 0.00 0.03 0.03 99 1020.6
20260506110212 0 347 0.0 0.0 0.00 0.03 0.03 99 1020.5
20260506105708 0 0 0.0 0.0 0.00 0.03 0.03 99 1020.5
20260506105205 0 305 0.0 0.0 0.00 0.03 0.03 99 1020.5
20260506104704 0 308 0.0 0.0 0.00 0.03 0.03 99 1020.4
20260506104201 0 328 0.0 0.0 0.00 0.03 0.03 99 1020.3
20260506103658 0 322 0.0 0.0 0.00 0.03 0.03 99 1019.9
20260506103155 0 21 1.6 1.6 0.00 0.03 0.03 99 1020.2
20260506102653 0 343 1.6 3.2 0.00 0.03 0.03 99 1020.0
20260506102150 0 322 0.0 1.6 0.00 0.03 0.03 99 1019.9
20260506101647 0 280 0.0 1.6 0.00 0.03 0.03 99 1020.0
20260506101144 0 317 0.0 1.6 0.00 0.03 0.03 99 1020.0
20260506100642 0 347 0.0 0.0 0.00 0.03 0.03 99 1020.0
20260506100140 0 328 0.0 0.0 0.00 0.03 0.03 99 1020.0
20260506095638 0 334 0.0 0.0 0.13 0.03 0.03 99 1019.9
20260506095134 0 334 0.0 0.0 0.13 0.03 0.03 99 1020.0
20260506094632 0 336 0.0 0.0 0.00 0.00 0.00 99 1020.3
20260506094130 0 343 0.0 0.0 0.00 0.00 0.00 99 1020.3
20260506093628 0 332 0.0 0.0 0.00 0.00 0.00 99 1020.0
20260506093125 0 332 0.0 0.0 0.00 0.00 0.00 99 1020.3
20260506092623 0 328 0.0 0.0 0.00 0.00 0.00 99 1020.2
20260506092119 0 314 0.0 0.0 0.00 0.00 0.00 99 1020.3
20260506091617 0 319 0.0 0.0 0.00 0.00 0.00 99 1020.4
20260506091114 0 342 0.0 0.0 0.00 0.00 0.00 99 1020.2
20260506090613 0 272 1.6 1.6 0.00 0.00 0.00 99 1020.4
20260506090108 0 20 1.6 1.6 0.00 0.00 0.00 99 1019.9
20260506085606 0 347 0.0 1.6 0.00 0.00 0.00 99 1020.0
20260506085102 0 332 0.0 0.0 0.00 0.00 0.00 99 1020.3
20260506084559 0 319 0.0 0.0 0.00 0.00 0.00 99 1020.3
20260506084055 0 282 0.0 0.0 0.00 0.00 0.00 99 1020.3
20260506083552 0 331 0.0 0.0 0.00 0.00 0.00 99 1020.3
20260506083050 0 345 1.6 1.6 0.00 0.00 0.00 99 1020.6
20260506082546 0 334 0.0 0.0 0.00 0.00 0.00 99 1020.4
20260506082042 0 8 0.0 0.0 0.00 0.00 0.00 99 1020.4
20260506081540 0 346 0.0 0.0 0.00 0.00 0.00 99 1020.2
20260506081037 0 340 0.0 0.0 0.00 0.00 0.00 99 1020.4
20260506080535 0 322 0.0 0.0 0.00 0.00 0.00 99 1020.3
20260506073519 0 320 0.0 0.0 0.00 0.00 0.00 99 1019.8
20260506073015 0 351 0.0 0.0 0.00 0.00 0.00 99 1020.2
20260506072513 0 0 0.0 1.6 0.00 0.00 0.00 99 1020.0
20260506072010 0 331 0.0 0.0 0.00 0.00 0.00 99 1019.9
20260506071508 0 335 0.0 0.0 0.00 0.00 0.00 99 1020.2
20260506071005 1 330 0.0 0.0 0.00 0.00 0.00 99 1019.8
20260506070502 0 320 1.6 1.6 0.00 0.00 0.00 99 1019.8
20260506062439 1 323 0.0 0.0 0.00 0.71 0.71 99 1019.6
20260506061935 1 331 0.0 0.0 0.00 0.71 0.71 99 1019.4
20260506061432 1 331 0.0 0.0 0.00 0.71 0.71 99 1019.4
20260506060930 1 330 0.0 0.0 0.00 0.71 0.71 99 1019.4
20260506060428 1 336 0.0 0.0 0.00 0.71 0.71 99 1019.1
20260506051400 3 336 0.0 0.0 0.00 0.71 0.71 99 1018.5
20260506050857 3 332 0.0 0.0 0.00 0.71 0.71 99 1018.6
20260506050354 3 336 0.0 0.0 0.00 0.71 0.71 99 1018.8
20260506044845 3 311 0.0 1.6 0.00 0.71 0.71 99 1018.6
20260506044343 3 355 0.0 0.0 0.00 0.71 0.71 99 1018.5
20260506043839 4 64 1.6 1.6 0.00 0.71 0.71 99 1018.4
20260506043337 4 334 0.0 0.0 0.00 0.71 0.71 99 1018.5
20260506042835 4 322 0.0 0.0 0.00 0.71 0.71 99 1018.5
20260506042334 4 260 0.0 0.0 0.00 0.71 0.71 99 1018.5
20260506041832 4 258 0.0 0.0 0.00 0.71 0.71 99 1018.4
20260506041329 3 357 0.0 0.0 0.00 0.71 0.71 99 1018.2
20260506040826 3 17 0.0 0.0 0.00 0.71 0.71 99 1018.2
20260506040323 4 89 0.0 0.0 0.00 0.71 0.71 99 1018.2
20260506035819 4 36 0.0 0.0 0.00 0.71 0.71 99 1018.4
20260506035317 4 327 0.0 0.0 0.00 0.71 0.71 99 1018.1
20260506034814 3 355 0.0 0.0 0.00 0.71 0.71 99 1018.0
20260506034311 4 5 0.0 0.0 0.00 0.71 0.71 99 1018.0
20260506033808 4 295 0.0 0.0 0.00 0.71 0.71 99 1017.9
20260506033305 3 349 0.0 0.0 0.00 0.71 0.71 99 1017.9
20260506032802 3 357 0.0 0.0 0.00 0.71 0.71 99 1017.9
20260506032259 3 350 0.0 0.0 0.00 0.71 0.71 99 1017.8
20260506031755 3 337 0.0 0.0 0.00 0.71 0.71 99 1017.6
20260506031253 4 327 0.0 0.0 0.00 0.71 0.71 99 1017.5
20260506030751 3 340 0.0 0.0 0.00 0.71 0.71 99 1017.5
20260506030248 3 5 0.0 0.0 0.00 0.71 0.71 99 1017.5
20260506025745 3 10 0.0 0.0 0.00 0.71 0.71 99 1017.5
20260506025241 3 7 0.0 0.0 0.00 0.71 0.71 99 1017.2
20260506024738 3 71 0.0 0.0 0.00 0.71 0.71 99 1017.3
20260506024235 3 102 0.0 1.6 0.00 0.71 0.71 99 1017.3
20260506023731 3 189 0.0 3.2 0.00 0.71 0.71 99 1016.9
20260506023229 3 36 0.0 1.6 0.00 0.71 0.71 99 1017.0
20260506022725 3 232 0.0 1.6 0.00 0.71 0.71 99 1016.8
20260506022223 4 128 0.0 1.6 0.00 0.71 0.71 99 1017.0
20260506021721 4 47 0.0 0.0 0.00 0.71 0.71 99 1016.9
20260506021218 4 137 0.0 0.0 0.00 0.71 0.71 99 1016.9
20260506020714 4 126 0.0 1.6 0.00 0.71 0.71 99 1017.0
20260506020212 3 97 0.0 0.0 0.00 0.71 0.71 99 1016.8
20260506015709 3 132 0.0 0.0 0.00 0.71 0.71 99 1016.8
20260506015207 3 93 0.0 0.0 0.00 0.71 0.71 99 1016.9
20260506014704 3 117 0.0 0.0 0.00 0.71 0.71 99 1016.9
20260506014200 3 160 0.0 1.6 0.00 0.71 0.71 99 1017.0
20260506013658 3 144 1.6 3.2 0.00 0.71 0.71 99 1016.6
20260506013155 3 172 0.0 1.6 0.00 0.71 0.71 99 1016.8
20260506012651 3 240 3.2 3.2 0.00 0.71 0.71 99 1016.7
20260506012148 3 276 0.0 4.8 0.00 0.71 0.71 99 1016.9
20260506011645 3 198 3.2 3.2 0.00 0.71 0.71 99 1016.7
20260506011141 3 259 0.0 0.0 0.00 0.71 0.71 99 1016.6
20260506010640 3 216 3.2 3.2 0.00 0.71 0.71 99 1016.8
20260506010137 3 264 3.2 3.2 0.00 0.71 0.71 99 1016.7
20260506005633 3 251 1.6 1.6 0.00 0.71 0.71 99 1016.8
20260506005130 4 215 4.8 4.8 0.00 0.71 0.71 99 1016.7
20260506004626 4 27 0.0 0.0 0.00 0.71 0.71 99 1016.3
20260506004124 3 283 0.0 1.6 0.00 0.71 0.71 99 1016.5
20260506003620 3 284 0.0 3.2 0.00 0.71 0.71 99 1016.7
20260506003116 3 268 1.6 3.2 0.00 0.71 0.71 99 1016.7
20260506002612 3 248 4.8 4.8 0.00 0.71 0.71 99 1016.8
20260506002108 4 63 1.6 3.2 0.00 0.71 0.71 99 1016.8
20260506001605 3 131 3.2 3.2 0.00 0.71 0.71 99 1016.9
20260506001102 3 176 1.6 4.8 0.00 0.71 0.71 99 1016.8
20260506000559 3 20 0.0 1.6 0.00 0.71 0.71 99 1016.6
20260506000056 4 290 1.6 3.2 0.00 0.71 0.71 99 1016.8
20260505235554 3 221 0.0 0.0 0.00 0.71 0.71 99 1016.7
20260505235051 4 157 3.2 4.8 0.00 0.71 0.71 99 1016.6
20260505234548 4 174 1.6 3.2 0.00 0.71 0.71 99 1016.5
20260505234045 3 272 0.0 3.2 0.00 0.71 0.71 99 1016.7
20260505233543 3 254 6.4 9.7 0.00 0.71 0.71 99 1016.6
20260505233040 3 237 6.4 9.7 0.00 0.71 0.71 99 1016.5
20260505232537 4 246 3.2 4.8 0.00 0.71 0.71 99 1016.5
20260505232035 4 124 3.2 4.8 0.00 0.71 0.71 99 1016.6
20260505231531 5 146 4.8 9.7 0.00 0.71 0.71 99 1016.5
20260505231030 5 244 3.2 4.8 0.00 0.71 0.71 99 1016.7
20260505230527 5 58 0.0 1.6 0.00 0.71 0.71 99 1016.7
20260505230024 5 297 1.6 4.8 0.00 0.71 0.71 99 1016.5
20260505225520 6 290 0.0 1.6 0.00 0.71 0.71 99 1016.5
20260505225017 5 203 6.4 9.7 0.00 0.71 0.71 99 1016.5
20260505224514 5 242 8.0 11.3 0.00 0.71 0.71 99 1016.5
20260505224011 5 186 4.8 4.8 0.00 0.71 0.71 99 1016.7
20260505223508 5 124 4.8 4.8 0.00 0.71 0.71 99 1016.7
20260505223004 5 227 1.6 8.0 0.00 0.71 0.71 99 1016.5
20260505222501 4 244 6.4 8.0 0.00 0.71 0.71 99 1016.8
20260505221956 5 279 1.6 3.2 0.00 0.71 0.71 99 1016.8
20260505221454 4 278 3.2 9.7 0.18 0.71 0.71 99 1016.8
20260505220951 5 173 4.8 4.8 0.18 0.71 0.71 99 1016.3
20260505220448 4 266 1.6 3.2 0.00 0.69 0.69 99 1016.6
20260505215945 5 233 9.7 11.3 0.00 0.69 0.69 99 1016.3
20260505215443 5 247 4.8 8.0 0.00 0.69 0.69 99 1016.7
20260505214941 4 358 1.6 3.2 0.00 0.69 0.69 99 1016.6
20260505214438 4 275 4.8 9.7 0.00 0.69 0.69 99 1016.7
20260505213936 4 167 4.8 4.8 0.00 0.69 0.69 99 1016.7
20260505213433 3 198 3.2 9.7 0.00 0.69 0.69 99 1016.6
20260505212929 3 240 4.8 8.0 0.13 0.69 0.69 99 1016.9
20260505212426 3 230 4.8 11.3 0.00 0.66 0.66 99 1016.5
20260505211922 4 216 1.6 8.0 0.00 0.66 0.66 99 1016.8
20260505211420 4 303 0.0 3.2 0.18 0.66 0.66 99 1016.6
20260505210916 4 319 1.6 3.2 0.18 0.66 0.66 99 1016.6
20260505210414 4 241 3.2 4.8 0.00 0.64 0.64 99 1016.3
20260505205910 4 146 0.0 4.8 0.00 0.64 0.64 99 1016.3
20260505205409 4 23 0.0 3.2 0.13 0.64 0.64 99 1016.3
20260505204905 4 249 3.2 3.2 0.13 0.64 0.64 99 1016.1
20260505204403 4 129 4.8 4.8 0.00 0.61 0.61 99 1016.2
20260505203900 3 327 0.0 4.8 0.00 0.61 0.61 99 1016.5
20260505203356 4 232 4.8 8.0 0.00 0.61 0.61 99 1016.3
20260505202853 4 199 0.0 1.6 0.18 0.61 0.61 99 1016.1
20260505202349 3 250 3.2 4.8 0.13 0.58 0.58 99 1016.0
20260505201846 3 288 0.0 4.8 0.13 0.58 0.58 99 1016.2
20260505201343 3 252 1.6 4.8 0.00 0.56 0.56 99 1016.2
20260505200841 3 76 1.6 3.2 0.18 0.56 0.56 99 1016.1
20260505200338 3 248 1.6 9.7 0.18 0.56 0.56 99 1016.1
20260505195834 3 246 3.2 4.8 0.00 0.53 0.53 99 1015.9
20260505195331 3 183 1.6 11.3 0.00 0.53 0.53 99 1016.1
20260505194828 3 319 0.0 3.2 0.13 0.53 0.53 99 1016.0
20260505194325 3 141 6.4 8.0 0.13 0.53 0.53 99 1015.9
20260505193820 4 152 4.8 9.7 0.00 0.51 0.51 99 1016.2
20260505193318 3 184 1.6 8.0 0.00 0.51 0.51 99 1016.0
20260505192816 4 234 0.0 9.7 0.00 0.51 0.51 99 1016.0
20260505192315 4 167 4.8 8.0 0.00 0.51 0.51 99 1015.9
20260505191812 4 174 3.2 4.8 0.00 0.51 0.51 99 1016.1
20260505191310 4 358 0.0 1.6 0.00 0.51 0.51 99 1016.1
20260505190806 4 156 1.6 4.8 0.00 0.51 0.51 99 1015.9
20260505190302 3 284 0.0 4.8 0.00 0.51 0.51 99 1015.9
20260505185758 4 242 6.4 9.7 0.00 0.51 0.51 99 1015.9